{"data":{"norad_id":40908,"epoch":"2026-05-25T04:13:12.962208Z","epoch_age_seconds":55704,"freshness":"FRESH","line1":"1 40908U 15049K   26145.17584447  .00016053  00000+0  28199-3 0  9994","line2":"2 40908  97.4677 181.1540 0006205 353.9873   6.1303 15.50580403592183","mean_motion":15.50580403,"eccentricity":0.0006205,"inclination_deg":97.4677,"raan_deg":181.154,"arg_perigee_deg":353.9873,"mean_anomaly_deg":6.1303,"bstar":0.00028199,"rev_number":59218,"period_min":92.868450885484,"perigee_km":410.81519760656,"apogee_km":419.24551829778,"semimajor_km":6793.1673579522,"source":"CELESTRAK","updated_at":"2026-05-25T13:38:23.287282Z"}}